Regional Weather Roundup
Issued by NWS Jackson, KY

Home | Current Version | Previous Version | Graphics & Text | Print | Product List | Glossary On
Versions: 1 2 3 4 5 6 7 8 9 10 11 12 13 14 15 16 17 18 19 20 21 22 23 24 25 26 27 28 29 30 31 32 33 34 35 36 37 38 39 40 41 42 43 44 45 46 47 48 49 50
000
ASUS43 KJKL 271510
RWRJKL

EAST KENTUCKY HOURLY WEATHER ROUNDUP
NATIONAL WEATHER SERVICE JACKSON KY
1100 AM EDT THU AUG 27 2015

NOTE: "FAIR" INDICATES FEW OR NO CLOUDS BELOW 12,000 FEET WITH
NO SIGNIFICANT WEATHER AND/OR OBSTRUCTIONS TO VISIBILITY.

* THESE REPORTS ARE NOT UNDER NWS QUALITY CONTROL AND MAY NOT
  REPORT WEATHER SUCH AS PRECIPITATION AND FOG.

KYZ079-080-083-085-087-088-110-112-115-119-120-271600
...EASTERN KENTUCKY...

CITY           SKY/WX    TMP DP  RH WIND       PRES   REMARKS
JACKSON        SUNNY     67  55  65 CALM      30.20R
LONDON         SUNNY     70  54  56 E9        30.18R
SOMERSET*      SUNNY     70  54  56 E8        30.19R
MONTICELLO*    SUNNY     71  59  66 E10G16    30.20R
WILLIAMSBURG*  SUNNY     68  57  68 E8        30.17R
MIDDLESBORO*   SUNNY     66  59  78 CALM      30.17S
HAZARD APT*    SUNNY     70  55  60 CALM      30.18R
BLACK MTN*       N/A     63  55  77 CALM        N/A
PIKEVILLE APT* MOSUNNY   63  57  82 NE3       30.20R
BIG SANDY*     SUNNY     68  57  68 NE6       30.20R
MOREHEAD APT*  SUNNY     68  54  60 E7        30.22R
$$

KYZ035-036-041-042-044-050-067-078-099-271600
...CENTRAL KENTUCKY...

CITY           SKY/WX    TMP DP  RH WIND       PRES   REMARKS
MT STERLING*   SUNNY     68  54  60 E8        30.21R
FLEMING/MASON* SUNNY     68  55  64 E6        30.21S
DANVILLE*      SUNNY     70  55  60 NE8       30.20R
RICHMOND*      SUNNY     70  54  56 NE6       30.19R
LEXINGTON      SUNNY     72  53  51 NE9       30.19S
FRANKFORT      SUNNY     71  54  54 MISG      30.19R
$$

KYZ091>093-OHZ055-061-077-WVZ005-015-034-035-042-271600
...SOUTHERN OHIO/WEST VIRGINIA...

CITY           SKY/WX    TMP DP  RH WIND       PRES   REMARKS
COVINGTON      PTSUNNY   71  57  61 SE5       30.20S
COLUMBUS       PTSUNNY   68  55  63 N5        30.19R
DAYTON         PTSUNNY   69  58  67 N6        30.21S
WILMINGTON     SUNNY     69  56  62 VRB5      30.20S
HUNTINGTON     PTSUNNY   70  55  59 E7        30.19R
CHARLESTON     MOSUNNY   67  58  72 N3        30.19R
PINEVILLE*     SUNNY     68  60  76 MISG      30.24S
BECKLEY        SUNNY     66  53  63 N8        30.21R
BLUEFIELD      SUNNY     66  53  63 VRB5      30.22S
$$

VAZ002-007-008-TNZ017-027-036-066-071-271600
...SOUTHWEST VIRGINIA/EAST TENNESSEE...

CITY           SKY/WX    TMP DP  RH WIND       PRES   REMARKS
WISE*            N/A     64  52  63 NE7       30.22R
JONESVILLE*    MOSUNNY   72  39  30 NE8       30.18R
ABINGDON*      MOSUNNY   71  54  54 SE6       30.18R
BRISTOL        MOSUNNY   71  55  56 CALM      30.15S
KNOXVILLE      MOSUNNY   72  57  59 NE12      30.11S
OAK RIDGE      MOSUNNY   72  58  61 VRB7      30.14R
CROSSVILLE     MOSUNNY   70  56  61 VRB3      30.16R
NASHVILLE      SUNNY     75  54  47 NE12      30.14S
$$

...KEY TO REMARKS...
VSB - VISIBILITY IN MILES
WCI - WIND CHILL INDEX
HX  - HEAT INDEX

$$


USA.gov is the U.S. government's official web portal to all federal, state and local government web resources and services.